Location: ????????
(55.3155°N, 39.2900°E)
Time: 09:49:40
(UTC+00:00)

Cosmos 1733 - Pass Details

Date: 14 April 2024
Orbit: 457 x 471 km, 82.5° (Epoch: 20 May)

Event Time Altitude Azimuth Distance (km) Brightness Sun altitude
Rises 00:16:29 0° 348° (NNW) 2,560 7.2 -15.8°
Reaches altitude 10° 00:18:36 10° 350° (N) 1,674 6.2 -15.6°
Maximum altitude 00:22:16 80° 76° (ENE) 496 3.1 -15.2°
Drops below altitude 10° 00:25:54 10° 166° (SSE) 1,654 5.5 -14.8°
Enters shadow 00:26:04 - 166° (SSE) 1,727 5.6 -14.8°
